Time,TemperatureF,DewpointF,PressureIn,WindDirection,WindDirectionDegrees,WindSpeedMPH,WindSpeedGustMPH,Humidity,HourlyPrecipIn,Conditions,Clouds,dailyrainin,SoftwareType,DateUTC
2013-03-13 00:01:00,56.9,37.4,30.04,North,355,3.0,5.0,48,0.00,,,0.00,VWS V14.01,2013-03-13 07:01:00,
2013-03-13 00:06:00,56.8,37.3,30.04,North,355,2.0,2.0,48,0.00,,,0.00,VWS V14.01,2013-03-13 07:06:00,
2013-03-13 00:11:00,56.6,37.2,30.04,North,355,3.0,3.0,48,0.00,,,0.00,VWS V14.01,2013-03-13 07:11:00,
2013-03-13 00:16:00,56.5,37.1,30.04,North,355,3.0,3.0,48,0.00,,,0.00,VWS V14.01,2013-03-13 07:16:00,
2013-03-13 00:21:00,56.3,36.9,30.04,North,355,0.0,0.0,48,0.00,,,0.00,VWS V14.01,2013-03-13 07:21:00,
2013-03-13 00:26:00,56.1,37.2,30.04,North,355,0.0,0.0,49,0.00,,,0.00,VWS V14.01,2013-03-13 07:26:00,
2013-03-13 00:31:00,55.9,37.0,30.04,North,355,1.0,1.0,49,0.00,,,0.00,VWS V14.01,2013-03-13 07:31:00,
2013-03-13 00:36:00,55.5,37.2,30.05,North,355,1.0,2.0,50,0.00,,,0.00,VWS V14.01,2013-03-13 07:36:00,
2013-03-13 00:41:00,55.2,36.4,30.05,North,355,1.0,3.0,49,0.00,,,0.00,VWS V14.01,2013-03-13 07:41:00,
2013-03-13 00:51:00,55.1,36.3,30.05,North,355,2.0,3.0,49,0.00,,,0.00,VWS V14.01,2013-03-13 07:51:00,
2013-03-13 00:56:00,55.0,36.2,30.05,North,355,0.0,3.0,49,0.00,,,0.00,VWS V14.01,2013-03-13 07:56:00,
2013-03-13 01:01:00,54.9,36.1,30.05,North,355,0.0,1.0,49,0.00,,,0.00,VWS V14.01,2013-03-13 08:01:00,
2013-03-13 01:11:00,54.5,36.3,30.05,North,355,5.0,5.0,50,0.00,,,0.00,VWS V14.01,2013-03-13 08:11:00,
2013-03-13 01:16:00,54.4,36.2,30.05,North,355,2.0,5.0,50,0.00,,,0.00,VWS V14.01,2013-03-13 08:16:00,
2013-03-13 01:21:00,54.4,36.2,30.05,North,355,0.0,5.0,50,0.00,,,0.00,VWS V14.01,2013-03-13 08:21:00,
2013-03-13 01:27:00,54.3,36.1,30.05,North,355,1.0,2.0,50,0.00,,,0.00,VWS V14.01,2013-03-13 08:27:00,
2013-03-13 01:32:00,54.3,36.1,30.05,North,355,1.0,4.0,50,0.00,,,0.00,VWS V14.01,2013-03-13 08:32:00,
2013-03-13 01:37:00,54.2,35.5,30.05,North,355,2.0,2.0,49,0.00,,,0.00,VWS V14.01,2013-03-13 08:37:00,
2013-03-13 01:42:00,54.2,35.5,30.05,North,355,2.0,2.0,49,0.00,,,0.00,VWS V14.01,2013-03-13 08:42:00,
2013-03-13 01:47:00,54.3,35.6,30.05,North,355,0.0,1.0,49,0.00,,,0.00,VWS V14.01,2013-03-13 08:47:00,
2013-03-13 01:52:00,54.2,36.5,30.05,North,355,0.0,1.0,51,0.00,,,0.00,VWS V14.01,2013-03-13 08:52:00,
2013-03-13 01:57:00,53.9,35.7,30.05,North,355,1.0,1.0,50,0.00,,,0.00,VWS V14.01,2013-03-13 08:57:00,
2013-03-13 02:02:00,53.6,35.4,30.05,North,355,3.0,4.0,50,0.00,,,0.00,VWS V14.01,2013-03-13 09:02:00,
2013-03-13 02:07:00,53.6,34.9,30.05,North,355,1.0,3.0,49,0.00,,,0.00,VWS V14.01,2013-03-13 09:07:00,
2013-03-13 02:12:00,53.6,34.9,30.04,North,355,5.0,5.0,49,0.00,,,0.00,VWS V14.01,2013-03-13 09:12:00,
2013-03-13 02:17:00,53.6,34.9,30.04,North,355,2.0,4.0,49,0.00,,,0.00,VWS V14.01,2013-03-13 09:17:00,
2013-03-13 02:22:00,53.5,35.3,30.04,North,355,4.0,4.0,50,0.00,,,0.00,VWS V14.01,2013-03-13 09:22:00,
2013-03-13 02:27:00,53.3,34.7,30.04,North,355,4.0,5.0,49,0.00,,,0.00,VWS V14.01,2013-03-13 09:27:00,
2013-03-13 02:32:00,53.5,34.3,30.04,North,355,0.0,4.0,48,0.00,,,0.00,VWS V14.01,2013-03-13 09:32:00,
2013-03-13 02:37:00,53.8,34.1,30.04,North,355,5.0,5.0,47,0.00,,,0.00,VWS V14.01,2013-03-13 09:37:00,
2013-03-13 02:42:00,54.3,34.0,30.04,North,355,3.0,6.0,46,0.00,,,0.00,VWS V14.01,2013-03-13 09:42:00,
2013-03-13 02:47:00,54.8,33.9,30.04,North,355,1.0,5.0,45,0.00,,,0.00,VWS V14.01,2013-03-13 09:47:00,
2013-03-13 02:52:00,54.8,34.4,30.04,North,355,2.0,4.0,46,0.00,,,0.00,VWS V14.01,2013-03-13 09:52:00,
2013-03-13 02:57:00,54.8,33.9,30.03,North,355,2.0,3.0,45,0.00,,,0.00,VWS V14.01,2013-03-13 09:57:00,
2013-03-13 03:02:00,54.7,33.8,30.03,North,355,0.0,5.0,45,0.00,,,0.00,VWS V14.01,2013-03-13 10:02:00,
2013-03-13 03:07:00,54.6,34.2,30.03,North,355,0.0,1.0,46,0.00,,,0.00,VWS V14.01,2013-03-13 10:07:00,
2013-03-13 03:12:00,54.3,34.0,30.03,North,355,0.0,3.0,46,0.00,,,0.00,VWS V14.01,2013-03-13 10:12:00,
2013-03-13 03:17:00,54.0,33.7,30.03,North,355,4.0,4.0,46,0.00,,,0.00,VWS V14.01,2013-03-13 10:17:00,
2013-03-13 03:22:00,53.9,33.6,30.03,North,355,1.0,5.0,46,0.00,,,0.00,VWS V14.01,2013-03-13 10:22:00,
2013-03-13 03:27:00,54.2,33.3,30.03,North,355,4.0,6.0,45,0.00,,,0.00,VWS V14.01,2013-03-13 10:27:00,
2013-03-13 03:32:00,54.5,33.6,30.03,North,350,3.0,6.0,45,0.00,,,0.00,VWS V14.01,2013-03-13 10:32:00,
2013-03-13 03:37:00,54.8,33.9,30.03,North,350,6.0,6.0,45,0.00,,,0.00,VWS V14.01,2013-03-13 10:37:00,
2013-03-13 03:42:00,55.2,33.7,30.03,North,350,2.0,4.0,44,0.00,,,0.00,VWS V14.01,2013-03-13 10:42:00,
2013-03-13 03:47:00,55.0,34.1,30.03,North,350,3.0,5.0,45,0.00,,,0.00,VWS V14.01,2013-03-13 10:47:00,
2013-03-13 03:52:00,54.9,34.5,30.04,North,350,0.0,0.0,46,0.00,,,0.00,VWS V14.01,2013-03-13 10:52:00,
2013-03-13 03:57:00,54.6,33.7,30.03,North,350,2.0,3.0,45,0.00,,,0.00,VWS V14.01,2013-03-13 10:57:00,
2013-03-13 04:02:00,54.2,33.3,30.04,North,350,3.0,3.0,45,0.00,,,0.00,VWS V14.01,2013-03-13 11:02:00,
2013-03-13 04:07:00,54.2,33.3,30.04,North,350,2.0,3.0,45,0.00,,,0.00,VWS V14.01,2013-03-13 11:07:00,
2013-03-13 04:12:00,54.2,33.3,30.04,North,350,3.0,4.0,45,0.00,,,0.00,VWS V14.01,2013-03-13 11:12:00,
2013-03-13 04:17:00,54.3,33.4,30.04,North,350,0.0,1.0,45,0.00,,,0.00,VWS V14.01,2013-03-13 11:17:00,
2013-03-13 04:22:00,54.6,33.7,30.04,North,350,0.0,4.0,45,0.00,,,0.00,VWS V14.01,2013-03-13 11:22:00,
2013-03-13 04:27:00,54.7,33.8,30.04,North,350,2.0,2.0,45,0.00,,,0.00,VWS V14.01,2013-03-13 11:27:00,
2013-03-13 04:32:00,54.6,34.8,30.04,North,350,0.0,1.0,47,0.00,,,0.00,VWS V14.01,2013-03-13 11:32:00,
2013-03-13 04:37:00,54.0,34.2,30.04,North,350,2.0,2.0,47,0.00,,,0.00,VWS V14.01,2013-03-13 11:37:00,
2013-03-13 04:42:00,53.4,33.7,30.04,North,350,3.0,4.0,47,0.00,,,0.00,VWS V14.01,2013-03-13 11:42:00,
2013-03-13 04:47:00,53.0,33.3,30.04,North,350,3.0,5.0,47,0.00,,,0.00,VWS V14.01,2013-03-13 11:47:00,
2013-03-13 04:52:00,53.0,33.3,30.04,North,350,4.0,5.0,47,0.00,,,0.00,VWS V14.01,2013-03-13 11:52:00,
2013-03-13 04:57:00,53.4,32.6,30.05,North,355,5.0,7.0,45,0.00,,,0.00,VWS V14.01,2013-03-13 11:57:00,
2013-03-13 05:02:00,54.1,32.7,30.05,North,355,5.0,7.0,44,0.00,,,0.00,VWS V14.01,2013-03-13 12:02:00,
2013-03-13 05:07:00,54.7,32.1,30.04,NNW,346,6.0,9.0,42,0.00,,,0.00,VWS V14.01,2013-03-13 12:07:00,
2013-03-13 05:12:00,55.3,32.6,30.05,NNW,345,7.0,10.0,42,0.00,,,0.00,VWS V14.01,2013-03-13 12:12:00,
2013-03-13 05:17:00,55.8,32.5,30.05,North,351,8.0,10.0,41,0.00,,,0.00,VWS V14.01,2013-03-13 12:17:00,
2013-03-13 05:22:00,55.9,32.6,30.05,NNW,344,7.0,11.0,41,0.00,,,0.00,VWS V14.01,2013-03-13 12:22:00,
2013-03-13 05:27:00,55.9,32.6,30.05,NNW,331,7.0,10.0,41,0.00,,,0.00,VWS V14.01,2013-03-13 12:27:00,
2013-03-13 05:32:00,55.7,32.4,30.05,North,355,5.0,8.0,41,0.00,,,0.00,VWS V14.01,2013-03-13 12:32:00,
2013-03-13 05:37:00,55.5,32.8,30.05,North,351,9.0,10.0,42,0.00,,,0.00,VWS V14.01,2013-03-13 12:37:00,
2013-03-13 05:42:00,55.3,32.6,30.05,North,355,7.0,9.0,42,0.00,,,0.00,VWS V14.01,2013-03-13 12:42:00,
2013-03-13 05:47:00,55.1,33.0,30.05,North,5,6.0,10.0,43,0.00,,,0.00,VWS V14.01,2013-03-13 12:47:00,
2013-03-13 05:52:00,55.0,32.9,30.05,NNW,346,7.0,8.0,43,0.00,,,0.00,VWS V14.01,2013-03-13 12:52:00,
2013-03-13 05:57:00,54.9,33.4,30.05,NNW,339,9.0,9.0,44,0.00,,,0.00,VWS V14.01,2013-03-13 12:57:00,
2013-03-13 06:02:00,55.0,32.9,30.05,NNW,348,9.0,11.0,43,0.00,,,0.00,VWS V14.01,2013-03-13 13:02:00,
2013-03-13 06:07:00,55.1,33.6,30.05,NNW,328,9.0,11.0,44,0.00,,,0.00,VWS V14.01,2013-03-13 13:07:00,
2013-03-13 06:12:00,55.0,33.5,30.06,North,355,7.0,10.0,44,0.00,,,0.00,VWS V14.01,2013-03-13 13:12:00,
2013-03-13 06:17:00,54.8,33.9,30.06,North,355,8.0,9.0,45,0.00,,,0.00,VWS V14.01,2013-03-13 13:17:00,
2013-03-13 06:22:00,54.6,33.7,30.06,NNW,337,5.0,8.0,45,0.00,,,0.00,VWS V14.01,2013-03-13 13:22:00,
2013-03-13 06:27:00,54.3,34.0,30.06,NW,324,6.0,10.0,46,0.00,,,0.00,VWS V14.01,2013-03-13 13:27:00,
2013-03-13 06:32:00,54.1,33.8,30.06,North,5,9.0,9.0,46,0.00,,,0.00,VWS V14.01,2013-03-13 13:32:00,
2013-03-13 06:37:00,54.2,33.9,30.06,NNW,345,9.0,12.0,46,0.00,,,0.00,VWS V14.01,2013-03-13 13:37:00,
2013-03-13 06:42:00,54.3,34.0,30.06,NW,323,8.0,10.0,46,0.00,,,0.00,VWS V14.01,2013-03-13 13:42:00,
2013-03-13 06:47:00,54.1,34.3,30.07,NW,305,3.0,9.0,47,0.00,,,0.00,VWS V14.01,2013-03-13 13:47:00,
2013-03-13 06:52:00,53.9,34.2,30.07,NNW,336,9.0,12.0,47,0.00,,,0.00,VWS V14.01,2013-03-13 13:52:00,
2013-03-13 06:57:00,53.9,34.2,30.07,NW,320,7.0,12.0,47,0.00,,,0.00,VWS V14.01,2013-03-13 13:57:00,
2013-03-13 07:02:00,54.0,34.2,30.07,North,355,7.0,9.0,47,0.00,,,0.00,VWS V14.01,2013-03-13 14:02:00,
2013-03-13 07:07:00,54.1,34.3,30.07,NNW,342,4.0,8.0,47,0.00,,,0.00,VWS V14.01,2013-03-13 14:07:00,
2013-03-13 07:13:00,54.4,34.6,30.07,NNW,339,4.0,10.0,47,0.00,,,0.00,VWS V14.01,2013-03-13 14:13:00,
2013-03-13 07:18:00,54.7,34.3,30.07,NNW,336,5.0,8.0,46,0.00,,,0.00,VWS V14.01,2013-03-13 14:18:00,
2013-03-13 07:23:00,55.3,34.3,30.07,NNW,340,10.0,10.0,45,0.00,,,0.00,VWS V14.01,2013-03-13 14:23:00,
2013-03-13 07:28:00,56.0,34.4,30.07,NNW,344,7.0,8.0,44,0.00,,,0.00,VWS V14.01,2013-03-13 14:28:00,
2013-03-13 07:33:00,56.8,34.0,30.07,NNE,30,6.0,9.0,42,0.00,,,0.00,VWS V14.01,2013-03-13 14:33:00,
2013-03-13 07:38:00,57.5,34.0,30.07,North,5,6.0,9.0,41,0.00,,,0.00,VWS V14.01,2013-03-13 14:38:00,
2013-03-13 07:43:00,58.1,34.5,30.07,North,355,5.0,9.0,41,0.00,,,0.00,VWS V14.01,2013-03-13 14:43:00,
2013-03-13 07:48:00,58.7,34.5,30.07,NNW,348,5.0,11.0,40,0.00,,,0.00,VWS V14.01,2013-03-13 14:48:00,
2013-03-13 07:53:00,59.1,34.8,30.07,North,360,5.0,9.0,40,0.00,,,0.00,VWS V14.01,2013-03-13 14:53:00,
2013-03-13 07:58:00,59.6,34.6,30.08,NNW,342,6.0,11.0,39,0.00,,,0.00,VWS V14.01,2013-03-13 14:58:00,
2013-03-13 08:03:00,60.0,34.3,30.07,NNW,342,6.0,9.0,38,0.00,,,0.00,VWS V14.01,2013-03-13 15:03:00,
2013-03-13 08:08:00,60.4,34.7,30.07,NNW,342,3.0,8.0,38,0.00,,,0.00,VWS V14.01,2013-03-13 15:08:00,
2013-03-13 08:13:00,60.8,35.1,30.08,NNW,348,6.0,7.0,38,0.00,,,0.00,VWS V14.01,2013-03-13 15:13:00,
2013-03-13 08:18:00,61.4,35.6,30.08,North,355,4.0,9.0,38,0.00,,,0.00,VWS V14.01,2013-03-13 15:18:00,
2013-03-13 08:23:00,62.0,35.5,30.08,NNW,329,5.0,8.0,37,0.00,,,0.00,VWS V14.01,2013-03-13 15:23:00,
2013-03-13 08:28:00,62.2,35.6,30.08,NNW,335,5.0,8.0,37,0.00,,,0.00,VWS V14.01,2013-03-13 15:28:00,
2013-03-13 08:33:00,62.6,36.7,30.08,NNW,348,6.0,8.0,38,0.00,,,0.00,VWS V14.01,2013-03-13 15:33:00,
2013-03-13 08:38:00,63.1,36.4,30.08,NNW,339,5.0,8.0,37,0.00,,,0.00,VWS V14.01,2013-03-13 15:38:00,
2013-03-13 08:43:00,63.7,35.6,30.08,North,355,8.0,10.0,35,0.00,,,0.00,VWS V14.01,2013-03-13 15:43:00,
2013-03-13 08:48:00,64.3,35.4,30.08,NNW,344,4.0,9.0,34,0.00,,,0.00,VWS V14.01,2013-03-13 15:48:00,
2013-03-13 08:53:00,65.0,35.2,30.08,NNW,346,4.0,10.0,33,0.00,,,0.00,VWS V14.01,2013-03-13 15:53:00,
2013-03-13 08:58:00,65.8,35.2,30.08,North,349,8.0,11.0,32,0.00,,,0.00,VWS V14.01,2013-03-13 15:58:00,
2013-03-13 09:03:00,66.1,34.6,30.08,NNW,333,6.0,8.0,31,0.00,,,0.00,VWS V14.01,2013-03-13 16:03:00,
2013-03-13 09:08:00,66.4,35.7,30.08,NNW,347,5.0,8.0,32,0.00,,,0.00,VWS V14.01,2013-03-13 16:08:00,
2013-03-13 09:13:00,66.8,35.2,30.09,NW,316,9.0,10.0,31,0.00,,,0.00,VWS V14.01,2013-03-13 16:13:00,
2013-03-13 09:18:00,67.1,34.7,30.09,North,350,7.0,9.0,30,0.00,,,0.00,VWS V14.01,2013-03-13 16:18:00,
2013-03-13 09:23:00,67.6,35.9,30.09,NNW,338,9.0,9.0,31,0.00,,,0.00,VWS V14.01,2013-03-13 16:23:00,
2013-03-13 09:28:00,68.2,35.6,30.09,NNE,13,7.0,9.0,30,0.00,,,0.00,VWS V14.01,2013-03-13 16:28:00,
2013-03-13 09:33:00,68.9,35.4,30.09,North,360,5.0,9.0,29,0.00,,,0.00,VWS V14.01,2013-03-13 16:33:00,
2013-03-13 09:38:00,69.3,34.8,30.09,North,5,7.0,10.0,28,0.00,,,0.00,VWS V14.01,2013-03-13 16:38:00,
2013-03-13 09:43:00,69.9,36.2,30.09,North,360,9.0,9.0,29,0.00,,,0.00,VWS V14.01,2013-03-13 16:43:00,
2013-03-13 09:48:00,70.4,34.9,30.09,North,5,4.0,9.0,27,0.00,,,0.00,VWS V14.01,2013-03-13 16:48:00,
2013-03-13 09:53:00,71.3,36.5,30.09,NNW,327,5.0,8.0,28,0.00,,,0.00,VWS V14.01,2013-03-13 16:53:00,
2013-03-13 09:58:00,71.8,35.1,30.09,NNW,346,3.0,10.0,26,0.00,,,0.00,VWS V14.01,2013-03-13 16:58:00,
2013-03-13 10:03:00,72.6,35.8,30.09,North,360,5.0,9.0,26,0.00,,,0.00,VWS V14.01,2013-03-13 17:03:00,
2013-03-13 10:08:00,73.1,34.2,30.09,NNW,344,3.0,8.0,24,0.00,,,0.00,VWS V14.01,2013-03-13 17:08:00,
2013-03-13 10:13:00,73.8,34.8,30.08,NNW,342,6.0,7.0,24,0.00,,,0.00,VWS V14.01,2013-03-13 17:13:00,
2013-03-13 10:18:00,74.6,35.5,30.09,NNE,22,4.0,5.0,24,0.00,,,0.00,VWS V14.01,2013-03-13 17:18:00,
2013-03-13 10:23:00,74.9,34.6,30.08,North,355,6.0,8.0,23,0.00,,,0.00,VWS V14.01,2013-03-13 17:23:00,
2013-03-13 10:28:00,75.3,33.9,30.08,NNW,334,3.0,5.0,22,0.00,,,0.00,VWS V14.01,2013-03-13 17:28:00,
2013-03-13 10:33:00,75.9,32.0,30.08,NW,322,3.0,9.0,20,0.00,,,0.00,VWS V14.01,2013-03-13 17:33:00,
2013-03-13 10:38:00,76.5,32.5,30.08,North,11,5.0,8.0,20,0.00,,,0.00,VWS V14.01,2013-03-13 17:38:00,
2013-03-13 10:43:00,76.7,32.7,30.08,NNW,344,6.0,6.0,20,0.00,,,0.00,VWS V14.01,2013-03-13 17:43:00,
2013-03-13 10:48:00,77.1,31.7,30.08,NW,321,2.0,6.0,19,0.00,,,0.00,VWS V14.01,2013-03-13 17:48:00,
2013-03-13 10:53:00,77.5,30.7,30.08,NW,323,6.0,7.0,18,0.00,,,0.00,VWS V14.01,2013-03-13 17:53:00,
2013-03-13 10:58:00,78.1,31.2,30.08,North,350,5.0,7.0,18,0.00,,,0.00,VWS V14.01,2013-03-13 17:58:00,
2013-03-13 11:03:00,78.2,28.4,30.08,NW,324,5.0,8.0,16,0.00,,,0.00,VWS V14.01,2013-03-13 18:03:00,
2013-03-13 11:08:00,78.3,28.5,30.08,NW,326,3.0,6.0,16,0.00,,,0.00,VWS V14.01,2013-03-13 18:08:00,
2013-03-13 11:13:00,78.8,30.4,30.08,NNW,347,1.0,7.0,17,0.00,,,0.00,VWS V14.01,2013-03-13 18:13:00,
2013-03-13 11:18:00,79.2,27.6,30.07,NNW,332,2.0,7.0,15,0.00,,,0.00,VWS V14.01,2013-03-13 18:18:00,
2013-03-13 11:23:00,79.2,27.6,30.07,NW,323,4.0,4.0,15,0.00,,,0.00,VWS V14.01,2013-03-13 18:23:00,
2013-03-13 11:28:00,79.3,30.8,30.08,North,355,1.0,7.0,17,0.00,,,0.00,VWS V14.01,2013-03-13 18:28:00,
2013-03-13 11:33:00,79.7,28.0,30.07,NW,318,5.0,7.0,15,0.00,,,0.00,VWS V14.01,2013-03-13 18:33:00,
2013-03-13 11:38:00,79.9,29.7,30.07,NNW,335,3.0,6.0,16,0.00,,,0.00,VWS V14.01,2013-03-13 18:38:00,
2013-03-13 11:43:00,80.1,28.3,30.07,NW,320,0.0,8.0,15,0.00,,,0.00,VWS V14.01,2013-03-13 18:43:00,
2013-03-13 11:48:00,80.4,28.6,30.07,West,277,2.0,5.0,15,0.00,,,0.00,VWS V14.01,2013-03-13 18:48:00,
2013-03-13 11:53:00,80.1,28.3,30.07,WNW,284,3.0,6.0,15,0.00,,,0.00,VWS V14.01,2013-03-13 18:53:00,
2013-03-13 11:58:00,80.4,28.6,30.06,NNW,340,0.0,7.0,15,0.00,,,0.00,VWS V14.01,2013-03-13 18:58:00,
2013-03-13 12:03:00,81.2,29.2,30.06,WNW,299,1.0,7.0,15,0.00,,,0.00,VWS V14.01,2013-03-13 19:03:00,
2013-03-13 12:08:00,81.4,29.4,30.06,NW,323,2.0,7.0,15,0.00,,,0.00,VWS V14.01,2013-03-13 19:08:00,
2013-03-13 12:13:00,81.0,29.0,30.06,NW,318,0.0,7.0,15,0.00,,,0.00,VWS V14.01,2013-03-13 19:13:00,
2013-03-13 12:18:00,80.6,28.7,30.05,NW,318,2.0,3.0,15,0.00,,,0.00,VWS V14.01,2013-03-13 19:18:00,
2013-03-13 12:23:00,81.3,29.3,30.05,NNW,338,4.0,5.0,15,0.00,,,0.00,VWS V14.01,2013-03-13 19:23:00,
2013-03-13 12:28:00,81.2,27.5,30.05,NW,315,1.0,7.0,14,0.00,,,0.00,VWS V14.01,2013-03-13 19:28:00,
2013-03-13 12:33:00,81.3,27.6,30.05,North,355,3.0,7.0,14,0.00,,,0.00,VWS V14.01,2013-03-13 19:33:00,
2013-03-13 12:38:00,81.6,29.5,30.05,NW,317,1.0,4.0,15,0.00,,,0.00,VWS V14.01,2013-03-13 19:38:00,
2013-03-13 12:43:00,82.4,28.5,30.04,NNW,341,6.0,8.0,14,0.00,,,0.00,VWS V14.01,2013-03-13 19:43:00,
2013-03-13 12:48:00,82.0,28.1,30.04,NW,319,0.0,7.0,14,0.00,,,0.00,VWS V14.01,2013-03-13 19:48:00,
2013-03-13 12:53:00,82.3,28.4,30.04,NW,319,0.0,2.0,14,0.00,,,0.00,VWS V14.01,2013-03-13 19:53:00,
2013-03-13 12:58:00,83.7,29.5,30.04,East,98,4.0,5.0,14,0.00,,,0.00,VWS V14.01,2013-03-13 19:58:00,
2013-03-13 13:03:00,83.1,27.2,30.03,NW,325,1.0,6.0,13,0.00,,,0.00,VWS V14.01,2013-03-13 20:03:00,
2013-03-13 13:08:00,82.9,28.9,30.03,NE,37,3.0,6.0,14,0.00,,,0.00,VWS V14.01,2013-03-13 20:08:00,
2013-03-13 13:13:00,82.6,26.8,30.03,NW,317,3.0,6.0,13,0.00,,,0.00,VWS V14.01,2013-03-13 20:13:00,
2013-03-13 13:18:00,83.0,27.1,30.02,North,355,5.0,6.0,13,0.00,,,0.00,VWS V14.01,2013-03-13 20:18:00,
2013-03-13 13:23:00,83.0,25.2,30.02,West,280,2.0,5.0,12,0.00,,,0.00,VWS V14.01,2013-03-13 20:23:00,
2013-03-13 13:28:00,82.8,25.0,30.02,NNW,333,4.0,5.0,12,0.00,,,0.00,VWS V14.01,2013-03-13 20:28:00,
2013-03-13 13:33:00,83.1,30.7,30.02,WNW,288,5.0,6.0,15,0.00,,,0.00,VWS V14.01,2013-03-13 20:33:00,
2013-03-13 13:38:00,82.9,33.7,30.01,SW,230,3.0,6.0,17,0.00,,,0.00,VWS V14.01,2013-03-13 20:38:00,
2013-03-13 13:43:00,84.1,31.5,30.01,SW,225,0.0,5.0,15,0.00,,,0.00,VWS V14.01,2013-03-13 20:43:00,
2013-03-13 13:48:00,83.7,27.7,30.01,North,355,4.0,5.0,13,0.00,,,0.00,VWS V14.01,2013-03-13 20:48:00,
2013-03-13 13:53:00,82.9,27.1,30.01,North,355,1.0,6.0,13,0.00,,,0.00,VWS V14.01,2013-03-13 20:53:00,
2013-03-13 13:58:00,83.4,27.5,30.00,NW,323,5.0,7.0,13,0.00,,,0.00,VWS V14.01,2013-03-13 20:58:00,
2013-03-13 14:03:00,82.8,27.0,30.00,NNW,333,2.0,4.0,13,0.00,,,0.00,VWS V14.01,2013-03-13 21:03:00,
2013-03-13 14:08:00,83.9,34.5,30.00,NW,321,3.0,5.0,17,0.00,,,0.00,VWS V14.01,2013-03-13 21:08:00,
2013-03-13 14:13:00,84.6,35.0,30.00,SW,229,8.0,8.0,17,0.00,,,0.00,VWS V14.01,2013-03-13 21:13:00,
2013-03-13 14:18:00,85.0,32.2,30.00,SW,228,4.0,9.0,15,0.00,,,0.00,VWS V14.01,2013-03-13 21:18:00,
2013-03-13 14:23:00,85.2,34.0,30.00,WSW,238,5.0,7.0,16,0.00,,,0.00,VWS V14.01,2013-03-13 21:23:00,
2013-03-13 14:29:00,85.3,32.5,30.00,WSW,238,0.0,6.0,15,0.00,,,0.00,VWS V14.01,2013-03-13 21:29:00,
2013-03-13 14:34:00,85.6,32.7,30.00,WSW,255,5.0,6.0,15,0.00,,,0.00,VWS V14.01,2013-03-13 21:34:00,
2013-03-13 14:39:00,85.3,32.5,29.99,WNW,284,2.0,5.0,15,0.00,,,0.00,VWS V14.01,2013-03-13 21:39:00,
2013-03-13 14:44:00,84.5,28.3,29.99,NNW,331,0.0,8.0,13,0.00,,,0.00,VWS V14.01,2013-03-13 21:44:00,
2013-03-13 14:49:00,84.3,30.0,29.99,North,360,4.0,10.0,14,0.00,,,0.00,VWS V14.01,2013-03-13 21:49:00,
2013-03-13 14:54:00,84.2,29.9,29.99,North,5,5.0,5.0,14,0.00,,,0.00,VWS V14.01,2013-03-13 21:54:00,
2013-03-13 14:59:00,84.0,27.9,29.99,North,355,3.0,6.0,13,0.00,,,0.00,VWS V14.01,2013-03-13 21:59:00,
2013-03-13 15:04:00,84.5,30.1,29.99,North,355,4.0,4.0,14,0.00,,,0.00,VWS V14.01,2013-03-13 22:04:00,
2013-03-13 15:09:00,85.2,32.4,29.99,North,351,3.0,5.0,15,0.00,,,0.00,VWS V14.01,2013-03-13 22:09:00,
2013-03-13 15:14:00,84.9,32.2,29.98,NNW,348,0.0,2.0,15,0.00,,,0.00,VWS V14.01,2013-03-13 22:14:00,
2013-03-13 15:19:00,84.4,31.8,29.98,NNW,346,3.0,7.0,15,0.00,,,0.00,VWS V14.01,2013-03-13 22:19:00,
2013-03-13 15:24:00,84.9,33.8,29.98,NW,325,1.0,7.0,16,0.00,,,0.00,VWS V14.01,2013-03-13 22:24:00,
2013-03-13 15:29:00,84.5,31.8,29.98,NW,325,0.0,5.0,15,0.00,,,0.00,VWS V14.01,2013-03-13 22:29:00,
2013-03-13 15:34:00,85.1,30.6,29.98,NW,317,0.0,6.0,14,0.00,,,0.00,VWS V14.01,2013-03-13 22:34:00,
2013-03-13 15:39:00,85.3,32.5,29.98,NW,317,4.0,4.0,15,0.00,,,0.00,VWS V14.01,2013-03-13 22:39:00,
2013-03-13 15:44:00,85.4,30.8,29.98,NW,317,1.0,4.0,14,0.00,,,0.00,VWS V14.01,2013-03-13 22:44:00,
2013-03-13 15:49:00,85.0,30.5,29.98,NW,312,1.0,8.0,14,0.00,,,0.00,VWS V14.01,2013-03-13 22:49:00,
2013-03-13 15:54:00,84.8,30.4,29.97,NW,309,4.0,5.0,14,0.00,,,0.00,VWS V14.01,2013-03-13 22:54:00,
2013-03-13 15:59:00,85.0,30.5,29.97,WNW,288,2.0,7.0,14,0.00,,,0.00,VWS V14.01,2013-03-13 22:59:00,
2013-03-13 16:04:00,84.9,32.2,29.97,WSW,247,2.0,8.0,15,0.00,,,0.00,VWS V14.01,2013-03-13 23:04:00,
2013-03-13 16:09:00,84.6,31.9,29.97,WSW,247,5.0,7.0,15,0.00,,,0.00,VWS V14.01,2013-03-13 23:09:00,
2013-03-13 16:14:00,84.7,32.0,29.97,WSW,248,4.0,5.0,15,0.00,,,0.00,VWS V14.01,2013-03-13 23:14:00,
2013-03-13 16:19:00,84.8,30.4,29.96,WSW,242,7.0,8.0,14,0.00,,,0.00,VWS V14.01,2013-03-13 23:19:00,
2013-03-13 16:24:00,84.3,31.7,29.97,WSW,241,4.0,5.0,15,0.00,,,0.00,VWS V14.01,2013-03-13 23:24:00,
2013-03-13 16:29:00,83.9,29.6,29.96,WSW,249,3.0,7.0,14,0.00,,,0.00,VWS V14.01,2013-03-13 23:29:00,
2013-03-13 16:34:00,84.0,29.7,29.96,West,262,3.0,6.0,14,0.00,,,0.00,VWS V14.01,2013-03-13 23:34:00,
2013-03-13 16:39:00,84.0,29.7,29.96,WNW,298,6.0,8.0,14,0.00,,,0.00,VWS V14.01,2013-03-13 23:39:00,
2013-03-13 16:44:00,83.9,29.6,29.96,WNW,298,0.0,9.0,14,0.00,,,0.00,VWS V14.01,2013-03-13 23:44:00,
2013-03-13 16:49:00,83.7,31.2,29.96,WNW,296,3.0,8.0,15,0.00,,,0.00,VWS V14.01,2013-03-13 23:49:00,
2013-03-13 16:54:00,83.5,31.0,29.96,WNW,295,4.0,6.0,15,0.00,,,0.00,VWS V14.01,2013-03-13 23:54:00,
2013-03-13 16:59:00,83.5,29.3,29.96,NW,304,0.0,7.0,14,0.00,,,0.00,VWS V14.01,2013-03-13 23:59:00,
2013-03-13 17:04:00,83.6,29.4,29.96,NW,304,3.0,6.0,14,0.00,,,0.00,VWS V14.01,2013-03-14 00:04:00,
2013-03-13 17:09:00,83.6,29.4,29.96,NNW,329,6.0,7.0,14,0.00,,,0.00,VWS V14.01,2013-03-14 00:09:00,
2013-03-13 17:14:00,83.3,29.2,29.96,NNW,329,1.0,5.0,14,0.00,,,0.00,VWS V14.01,2013-03-14 00:14:00,
2013-03-13 17:19:00,83.1,27.2,29.96,NNW,329,2.0,5.0,13,0.00,,,0.00,VWS V14.01,2013-03-14 00:19:00,
2013-03-13 17:24:00,82.9,28.9,29.96,NNW,329,5.0,6.0,14,0.00,,,0.00,VWS V14.01,2013-03-14 00:24:00,
2013-03-13 17:29:00,82.6,31.9,29.96,NNW,329,3.0,5.0,16,0.00,,,0.00,VWS V14.01,2013-03-14 00:29:00,
2013-03-13 17:34:00,82.5,30.2,29.96,NNW,329,5.0,8.0,15,0.00,,,0.00,VWS V14.01,2013-03-14 00:34:00,
2013-03-13 17:39:00,82.2,28.3,29.96,NNW,329,2.0,6.0,14,0.00,,,0.00,VWS V14.01,2013-03-14 00:39:00,
2013-03-13 17:44:00,82.1,26.4,29.96,NNW,337,3.0,7.0,13,0.00,,,0.00,VWS V14.01,2013-03-14 00:44:00,
2013-03-13 17:49:00,81.9,26.3,29.97,NNW,340,3.0,9.0,13,0.00,,,0.00,VWS V14.01,2013-03-14 00:49:00,
2013-03-13 17:54:00,81.7,27.9,29.97,NNW,340,6.0,6.0,14,0.00,,,0.00,VWS V14.01,2013-03-14 00:54:00,
2013-03-13 17:59:00,81.4,27.7,29.97,NNW,340,3.0,6.0,14,0.00,,,0.00,VWS V14.01,2013-03-14 00:59:00,
2013-03-13 18:04:00,81.1,30.7,29.97,NNW,342,5.0,7.0,16,0.00,,,0.00,VWS V14.01,2013-03-14 01:04:00,
2013-03-13 18:09:00,80.6,31.8,29.97,NNW,342,5.0,7.0,17,0.00,,,0.00,VWS V14.01,2013-03-14 01:09:00,
2013-03-13 18:14:00,80.0,32.7,29.97,NNW,342,2.0,6.0,18,0.00,,,0.00,VWS V14.01,2013-03-14 01:14:00,
2013-03-13 18:19:00,79.2,32.1,29.97,NNW,340,5.0,8.0,18,0.00,,,0.00,VWS V14.01,2013-03-14 01:19:00,
2013-03-13 18:24:00,78.3,31.4,29.97,NNW,341,5.0,9.0,18,0.00,,,0.00,VWS V14.01,2013-03-14 01:24:00,
2013-03-13 18:29:00,77.5,32.0,29.97,NNW,342,5.0,8.0,19,0.00,,,0.00,VWS V14.01,2013-03-14 01:29:00,
2013-03-13 18:34:00,76.6,32.6,29.97,NNW,342,6.0,9.0,20,0.00,,,0.00,VWS V14.01,2013-03-14 01:34:00,
2013-03-13 18:39:00,76.0,32.1,29.98,NNW,342,5.0,8.0,20,0.00,,,0.00,VWS V14.01,2013-03-14 01:39:00,
2013-03-13 18:44:00,75.5,32.9,29.98,NNW,342,4.0,7.0,21,0.00,,,0.00,VWS V14.01,2013-03-14 01:44:00,
2013-03-13 18:49:00,74.9,33.5,29.98,NNW,344,4.0,8.0,22,0.00,,,0.00,VWS V14.01,2013-03-14 01:49:00,
2013-03-13 18:54:00,74.2,33.0,29.98,NNW,343,4.0,7.0,22,0.00,,,0.00,VWS V14.01,2013-03-14 01:54:00,
2013-03-13 18:59:00,73.5,32.4,29.98,NNW,343,4.0,8.0,22,0.00,,,0.00,VWS V14.01,2013-03-14 01:59:00,
2013-03-13 19:04:00,73.0,33.0,29.98,NNW,344,4.0,7.0,23,0.00,,,0.00,VWS V14.01,2013-03-14 02:04:00,
2013-03-13 19:09:00,72.1,34.4,29.98,NNW,346,5.0,7.0,25,0.00,,,0.00,VWS V14.01,2013-03-14 02:09:00,
2013-03-13 19:14:00,71.0,34.4,29.98,NNW,346,6.0,7.0,26,0.00,,,0.00,VWS V14.01,2013-03-14 02:14:00,
2013-03-13 19:19:00,70.1,35.5,29.98,NNW,346,4.0,8.0,28,0.00,,,0.00,VWS V14.01,2013-03-14 02:19:00,
2013-03-13 19:24:00,69.3,35.7,29.99,NNW,346,4.0,6.0,29,0.00,,,0.00,VWS V14.01,2013-03-14 02:24:00,
2013-03-13 19:29:00,68.5,35.9,29.99,NNW,346,3.0,7.0,30,0.00,,,0.00,VWS V14.01,2013-03-14 02:29:00,
2013-03-13 19:34:00,67.7,35.2,29.99,NNW,346,3.0,6.0,30,0.00,,,0.00,VWS V14.01,2013-03-14 02:34:00,
2013-03-13 19:39:00,67.1,34.7,29.99,NNW,346,5.0,7.0,30,0.00,,,0.00,VWS V14.01,2013-03-14 02:39:00,
2013-03-13 19:44:00,67.0,32.8,29.99,NNW,346,4.0,7.0,28,0.00,,,0.00,VWS V14.01,2013-03-14 02:44:00,
2013-03-13 19:49:00,67.1,32.9,29.99,NNW,346,4.0,7.0,28,0.00,,,0.00,VWS V14.01,2013-03-14 02:49:00,
2013-03-13 19:54:00,67.3,32.2,29.99,NNW,347,6.0,10.0,27,0.00,,,0.00,VWS V14.01,2013-03-14 02:54:00,
2013-03-13 19:59:00,67.4,32.3,29.99,NNW,345,4.0,9.0,27,0.00,,,0.00,VWS V14.01,2013-03-14 02:59:00,
2013-03-13 20:04:00,67.4,32.3,29.99,North,351,7.0,8.0,27,0.00,,,0.00,VWS V14.01,2013-03-14 03:04:00,
2013-03-13 20:09:00,67.2,32.1,30.00,North,355,5.0,8.0,27,0.00,,,0.00,VWS V14.01,2013-03-14 03:09:00,
2013-03-13 20:14:00,66.8,32.7,30.00,North,355,0.0,8.0,28,0.00,,,0.00,VWS V14.01,2013-03-14 03:14:00,
2013-03-13 20:19:00,66.3,32.2,30.00,North,349,7.0,9.0,28,0.00,,,0.00,VWS V14.01,2013-03-14 03:19:00,
2013-03-13 20:24:00,66.1,33.0,30.00,North,350,7.0,9.0,29,0.00,,,0.00,VWS V14.01,2013-03-14 03:24:00,
2013-03-13 20:29:00,65.8,32.7,30.00,North,350,5.0,9.0,29,0.00,,,0.00,VWS V14.01,2013-03-14 03:29:00,
2013-03-13 20:34:00,65.4,33.2,30.00,NNW,339,6.0,10.0,30,0.00,,,0.00,VWS V14.01,2013-03-14 03:34:00,
2013-03-13 20:39:00,65.2,33.0,30.00,North,350,7.0,9.0,30,0.00,,,0.00,VWS V14.01,2013-03-14 03:39:00,
2013-03-13 20:44:00,65.1,32.9,30.01,NNW,347,6.0,10.0,30,0.00,,,0.00,VWS V14.01,2013-03-14 03:44:00,
2013-03-13 20:49:00,65.1,32.9,30.01,NNW,348,5.0,9.0,30,0.00,,,0.00,VWS V14.01,2013-03-14 03:49:00,
2013-03-13 20:54:00,65.1,32.9,30.01,North,349,8.0,9.0,30,0.00,,,0.00,VWS V14.01,2013-03-14 03:54:00,
2013-03-13 20:59:00,64.9,32.8,30.01,NNW,346,9.0,10.0,30,0.00,,,0.00,VWS V14.01,2013-03-14 03:59:00,
2013-03-13 21:01:00,64.9,32.8,30.01,NNW,344,6.0,10.0,30,0.00,,,0.00,VWS V14.01,2013-03-14 04:01:00,
2013-03-13 21:04:00,64.7,32.6,30.01,NNW,345,7.0,10.0,30,0.00,,,0.00,VWS V14.01,2013-03-14 04:04:00,
2013-03-13 21:06:00,64.6,32.5,30.01,NNW,341,12.0,12.0,30,0.00,,,0.00,VWS V14.01,2013-03-14 04:06:00,
2013-03-13 21:14:00,64.8,31.8,30.01,NW,313,10.0,11.0,29,0.00,,,0.00,VWS V14.01,2013-03-14 04:14:00,
2013-03-13 21:16:00,64.8,31.8,30.01,NNW,336,8.0,11.0,29,0.00,,,0.00,VWS V14.01,2013-03-14 04:16:00,
2013-03-13 21:24:00,65.1,31.2,30.01,NNW,327,7.0,11.0,28,0.00,,,0.00,VWS V14.01,2013-03-14 04:24:00,
2013-03-13 21:29:00,65.2,31.3,30.01,NNW,339,9.0,12.0,28,0.00,,,0.00,VWS V14.01,2013-03-14 04:29:00,
2013-03-13 21:34:00,65.3,31.4,30.01,NNW,345,8.0,11.0,28,0.00,,,0.00,VWS V14.01,2013-03-14 04:34:00,
2013-03-13 21:39:00,65.4,30.6,30.01,North,355,11.0,11.0,27,0.00,,,0.00,VWS V14.01,2013-03-14 04:39:00,
2013-03-13 21:44:00,65.8,30.0,30.01,NNW,347,7.0,11.0,26,0.00,,,0.00,VWS V14.01,2013-03-14 04:44:00,
2013-03-13 21:49:00,66.2,30.3,30.01,NNW,346,7.0,10.0,26,0.00,,,0.00,VWS V14.01,2013-03-14 04:49:00,
2013-03-13 21:54:00,66.4,29.5,30.01,NNW,340,5.0,10.0,25,0.00,,,0.00,VWS V14.01,2013-03-14 04:54:00,
2013-03-13 21:59:00,66.7,29.8,30.01,NW,311,5.0,10.0,25,0.00,,,0.00,VWS V14.01,2013-03-14 04:59:00,
2013-03-13 22:04:00,66.7,29.8,30.01,North,350,6.0,9.0,25,0.00,,,0.00,VWS V14.01,2013-03-14 05:04:00,
2013-03-13 22:09:00,66.5,29.6,30.01,NNW,343,5.0,8.0,25,0.00,,,0.00,VWS V14.01,2013-03-14 05:09:00,
2013-03-13 22:14:00,66.2,29.4,30.01,NNW,345,10.0,10.0,25,0.00,,,0.00,VWS V14.01,2013-03-14 05:14:00,
2013-03-13 22:19:00,66.2,29.4,30.01,NW,319,8.0,10.0,25,0.00,,,0.00,VWS V14.01,2013-03-14 05:19:00,
2013-03-13 22:24:00,66.4,28.5,30.01,NNW,338,6.0,10.0,24,0.00,,,0.00,VWS V14.01,2013-03-14 05:24:00,
2013-03-13 22:30:00,66.6,28.7,30.01,North,350,8.0,10.0,24,0.00,,,0.00,VWS V14.01,2013-03-14 05:30:00,
2013-03-13 22:35:00,66.8,28.9,30.01,North,355,7.0,9.0,24,0.00,,,0.00,VWS V14.01,2013-03-14 05:35:00,
2013-03-13 22:40:00,66.9,27.9,30.02,NNW,329,8.0,9.0,23,0.00,,,0.00,VWS V14.01,2013-03-14 05:40:00,
2013-03-13 22:45:00,67.0,28.0,30.02,North,351,3.0,8.0,23,0.00,,,0.00,VWS V14.01,2013-03-14 05:45:00,
2013-03-13 22:50:00,66.9,27.9,30.02,North,355,7.0,10.0,23,0.00,,,0.00,VWS V14.01,2013-03-14 05:50:00,
2013-03-13 22:55:00,66.8,27.8,30.01,NNW,340,5.0,10.0,23,0.00,,,0.00,VWS V14.01,2013-03-14 05:55:00,
2013-03-13 23:00:00,66.9,27.9,30.01,North,355,6.0,9.0,23,0.00,,,0.00,VWS V14.01,2013-03-14 06:00:00,
2013-03-13 23:05:00,66.9,27.9,30.01,NNW,339,5.0,10.0,23,0.00,,,0.00,VWS V14.01,2013-03-14 06:05:00,
2013-03-13 23:10:00,66.8,27.8,30.02,North,349,8.0,8.0,23,0.00,,,0.00,VWS V14.01,2013-03-14 06:10:00,
2013-03-13 23:15:00,66.7,27.8,30.01,NNW,336,2.0,9.0,23,0.00,,,0.00,VWS V14.01,2013-03-14 06:15:00,
2013-03-13 23:20:00,66.4,27.5,30.01,NNW,343,6.0,9.0,23,0.00,,,0.00,VWS V14.01,2013-03-14 06:20:00,
2013-03-13 23:25:00,66.1,28.3,30.01,NNW,327,6.0,9.0,24,0.00,,,0.00,VWS V14.01,2013-03-14 06:25:00,
2013-03-13 23:30:00,65.7,28.0,30.01,NNW,346,8.0,9.0,24,0.00,,,0.00,VWS V14.01,2013-03-14 06:30:00,
2013-03-13 23:35:00,65.4,28.7,30.01,North,350,7.0,8.0,25,0.00,,,0.00,VWS V14.01,2013-03-14 06:35:00,
2013-03-13 23:40:00,65.0,28.4,30.01,NW,323,6.0,9.0,25,0.00,,,0.00,VWS V14.01,2013-03-14 06:40:00,
2013-03-13 23:45:00,64.6,29.0,30.01,NNW,340,7.0,10.0,26,0.00,,,0.00,VWS V14.01,2013-03-14 06:45:00,
2013-03-13 23:50:00,64.1,28.5,30.01,NNW,340,9.0,9.0,26,0.00,,,0.00,VWS V14.01,2013-03-14 06:50:00,
2013-03-13 23:55:00,63.7,29.1,30.01,NNW,342,6.0,9.0,27,0.00,,,0.00,VWS V14.01,2013-03-14 06:55:00,